Location: Chacón
(10.5789°N, 66.9317°W)
Time: 05:12:47
(UTC+00:00)

Sakura Rocket - Pass Details

Date: 15 August 2024
Orbit: 475 x 1710 km, 28.7° (Epoch: 16 September)

Event Time Altitude Azimuth Distance (km) Brightness Sun altitude
Rises 00:02:59 0° 247° (WSW) 2,958 7.3 -18.9°
Reaches altitude 10° 00:05:35 10° 250° (WSW) 1,900 6.3 -19.5°
Maximum altitude 00:09:46 62° 331° (NNW) 572 3.0 -20.5°
Enters shadow 00:10:54 40° 35° (NE) 737 3.3 -20.7°
